Main page
METAR-TAF:

METAR-TAF

Airports :

Wattisham Flying Station

Wattisham, England

latitude: 52-07N, longitude: 000-58E, elevation: 87 m

Current weather observation

The report was made 1 hour and 17 minutes ago, at 14:50 UTC
Wind 12 kt from the West
Temperature 17°C
Humidity 42%
Pressure 1018 hPa
Visibility 10 km or more

METAR: EGUW 061450Z AUTO 28012KT 9999 BKN060/// 17/04 Q1018

Time: 17:07 (16:07 UTC)


TAF: missing

Weather observations and forecasts of more than 4000 airports (METAR and TAF reports).

The available stations are represented by yellow and red dots on the map.

Hover mouse over dot to see the name of the station.

Then click to see weather observations and forecasts.

To change the map : click on the green buttons with a black cross to zoom in, on the green button with a dash to zoom out, or on the green arrows for adjacent maps.


METAR-TAF: